This is the latest recevied weather packets stored in our database for station/object WX4SGA. If no packets are shown the sender has not sent any weather packets the latest 10 day(s).
| Time | Temp. | Humidity | Pressure | Rain* | Wind** | Luminosity | Snow |
|---|---|---|---|---|---|---|---|
| 1777842209 | 23.33° C | 35% | 1018 hPa | 0 mm | - | 378 W/m² | - |
| 1777841904 | 23.89° C | 35% | 1018.3 hPa | 0 mm | - | 374 W/m² | - |
| 1777841600 | 23.89° C | 36% | 1018 hPa | 0 mm | - | 420 W/m² | - |
| 1777841298 | 24.44° C | 32% | 1018 hPa | 0 mm | - | 424 W/m² | - |
| 1777840995 | 23.89° C | 33% | 1018.3 hPa | 0 mm | - | 449 W/m² | - |
| 1777840692 | 23.89° C | 31% | 1018.3 hPa | 0 mm | - | 541 W/m² | - |
| 1777840389 | 23.33° C | 32% | 1018.3 hPa | 0 mm | - | 514 W/m² | - |
| 1777840086 | 23.33° C | 33% | 1018.3 hPa | 0 mm | - | 519 W/m² | - |
| 1777839784 | 22.78° C | 34% | 1018.3 hPa | 0 mm | - | 557 W/m² | - |
| 1777839482 | 22.78° C | 34% | 1018.6 hPa | 0 mm | - | 557 W/m² | - |
| 1777839179 | 22.78° C | 39% | 1018.3 hPa | 0 mm | - | 627 W/m² | - |
| 1777838876 | 23.33° C | 33% | 1018.6 hPa | 0 mm | - | 609 W/m² | - |
| 1777838572 | 22.78° C | 32% | 1018.6 hPa | 0 mm | - | 662 W/m² | - |
| 1777838270 | 23.33° C | 32% | 1019 hPa | 0 mm | - | 689 W/m² | - |
| 1777837966 | 22.78° C | 32% | 1018.6 hPa | 0 mm | - | 711 W/m² | - |
| 1777837663 | 22.78° C | 38% | 1018.6 hPa | 0 mm | - | 670 W/m² | - |
| 1777837359 | 23.89° C | 34% | 1018.6 hPa | 0 mm | - | 652 W/m² | - |
| 1777837055 | 23.33° C | 32% | 1018.6 hPa | 0 mm | - | 625 W/m² | - |
| 1777836751 | 23.33° C | 35% | 1018.6 hPa | 0 mm | - | 714 W/m² | - |
| 1777836447 | 23.33° C | 33% | 1019 hPa | 0 mm | - | 673 W/m² | - |
| 1777836142 | 22.78° C | 34% | 1019 hPa | 0 mm | - | 657 W/m² | - |
| 1777835840 | 23.33° C | 31% | 1019 hPa | 0 mm | - | 816 W/m² | - |
| 1777835536 | 22.78° C | 34% | 1019 hPa | 0 mm | - | 796 W/m² | - |
| 1777835233 | 23.33° C | 33% | 1019.3 hPa | 0 mm | - | 813 W/m² | - |
| 1777834930 | 22.78° C | 33% | 1019.3 hPa | 0 mm | - | 789 W/m² | - |
* Rain latest hour (hover to see other rain measurements)
** Current wind speed in m/s (hover to see current wind gust speed)